Location: Miss�
(46.9484°N, 0.1922°W)
Time: 01:08:52
(UTC+00:00)

Meteor 1-11 Rocket - Pass Details

Date: 02 March 2021
Orbit: 831 x 916 km, 81.2° (Epoch: 12 April)

Event Time Altitude Azimuth Distance (km) Brightness Sun altitude
Rises 19:29:00 0° 169° (S) 3,470 6.7 -18.0°
Reaches altitude 10° 19:31:33 10° 163° (SSE) 2,523 5.9 -18.4°
Maximum altitude 19:36:56 44° 93° (E) 1,182 4.0 -19.3°
Drops below altitude 10° 19:42:15 10° 23° (NNE) 2,487 6.0 -20.2°
Sets 19:44:44 0° 17° (NNE) 3,416 6.8 -20.6°
